When you browse on this site, cookies collect data to enhance your experience and personalize the content and advertising you see.
Visit our Privacy Policy to learn more. By continuing to use the site, you agree to this use of cookies and data.
  • In Österreich
  • Länderverzeichnis
  • Für 7 Tage
  • Wassertemperatur
  • Satellitenkarten
  • Wetterkarte
  • News
  • Widgets
  • user-avatar
    Anmelden

    Stündliche Wetter Shusha

    Heute, 26 Mai, Sonntag

    Zeit Temperatur Niederschläge Wind Luftdruck Luftfeuchtigkeit
    00:00 +16°C° 0 mm 2 m/S 659 mmHg 68%
    01:00 +16°C° 0 mm 2 m/S 658 mmHg 67%
    02:00 +15°C° 0 mm 2 m/S 658 mmHg 67%
    03:00 +16°C° 0 mm 2 m/S 658 mmHg 63%
    04:00 +16°C° 0 mm 2 m/S 658 mmHg 66%
    05:00 +17°C° 0 mm 2 m/S 659 mmHg 68%
    06:00 +18°C° 0 mm 1 m/S 659 mmHg 71%
    07:00 +19°C° 0 mm 2 m/S 659 mmHg 66%
    08:00 +21°C° 0 mm 2 m/S 659 mmHg 61%
    09:00 +24°C° 0 mm 3 m/S 659 mmHg 55%
    10:00 +24°C° 0.1 mm 3 m/S 659 mmHg 53%
    11:00 +25°C° 0.1 mm 3 m/S 659 mmHg 50%
    12:00 +26°C° 0.1 mm 4 m/S 659 mmHg 48%
    13:00 +25°C° 0.3 mm 3 m/S 659 mmHg 54%
    14:00 +24°C° 0.3 mm 3 m/S 658 mmHg 60%
    15:00 +22°C° 0 mm 3 m/S 657 mmHg 64%
    16:00 +21°C° 0.3 mm 3 m/S 658 mmHg 67%
    17:00 +21°C° 0.3 mm 2 m/S 658 mmHg 69%
    18:00 +20°C° 0.3 mm 2 m/S 658 mmHg 72%
    19:00 +19°C° 0.3 mm 2 m/S 658 mmHg 77%
    20:00 +17°C° 0.3 mm 2 m/S 658 mmHg 83%
    21:00 +16°C° 0.3 mm 2 m/S 658 mmHg 88%
    22:00 +16°C° 0.1 mm 2 m/S 659 mmHg 87%
    23:00 +15°C° 0.1 mm 1 m/S 659 mmHg 87%

    Morgen, 27 Mai, Montag

    Zeit Temperatur Niederschläge Wind Luftdruck Luftfeuchtigkeit
    00:00 +15°C° 0.1 mm 1 m/S 659 mmHg 86%
    01:00 +15°C° 0 mm 1 m/S 659 mmHg 86%
    02:00 +14°C° 0 mm 1 m/S 659 mmHg 86%
    03:00 +14°C° 0 mm 1 m/S 659 mmHg 86%
    04:00 +14°C° 0 mm 1 m/S 660 mmHg 85%
    05:00 +15°C° 0 mm 1 m/S 660 mmHg 83%
    06:00 +16°C° 0 mm 1 m/S 661 mmHg 81%
    07:00 +18°C° 0 mm 1 m/S 661 mmHg 77%
    08:00 +17°C° 0 mm 2 m/S 661 mmHg 72%
    09:00 +18°C° 0 mm 2 m/S 662 mmHg 68%
    10:00 +19°C° 0.2 mm 3 m/S 662 mmHg 64%
    11:00 +20°C° 0.2 mm 3 m/S 662 mmHg 61%
    12:00 +21°C° 0.2 mm 3 m/S 662 mmHg 57%
    13:00 +21°C° 0.5 mm 3 m/S 662 mmHg 56%
    14:00 +21°C° 0.5 mm 3 m/S 662 mmHg 55%
    15:00 +21°C° 0.5 mm 3 m/S 662 mmHg 54%
    16:00 +20°C° 0 mm 3 m/S 662 mmHg 56%
    17:00 +20°C° 0 mm 3 m/S 662 mmHg 58%
    18:00 +19°C° 0 mm 2 m/S 662 mmHg 60%
    19:00 +17°C° 0 mm 2 m/S 662 mmHg 68%
    20:00 +15°C° 0 mm 1 m/S 662 mmHg 76%
    21:00 +14°C° 0 mm 1 m/S 662 mmHg 83%
    22:00 +13°C° 0 mm 1 m/S 662 mmHg 84%
    23:00 +13°C° 0 mm 1 m/S 662 mmHg 84%

    übermorgen, 28 Mai, Dienstag

    Zeit Temperatur Niederschläge Wind Luftdruck Luftfeuchtigkeit
    00:00 +13°C° 0 mm 1 m/S 662 mmHg 85%
    01:00 +13°C° 0 mm 1 m/S 662 mmHg 85%
    02:00 +12°C° 0 mm 1 m/S 662 mmHg 86%
    03:00 +12°C° 0 mm 1 m/S 662 mmHg 87%
    04:00 +13°C° 0.1 mm 1 m/S 662 mmHg 85%
    05:00 +13°C° 0.1 mm 1 m/S 662 mmHg 83%
    06:00 +14°C° 0.1 mm 1 m/S 663 mmHg 80%
    07:00 +15°C° 0 mm 1 m/S 663 mmHg 76%
    08:00 +16°C° 0 mm 2 m/S 663 mmHg 71%
    09:00 +17°C° 0 mm 2 m/S 663 mmHg 66%
    10:00 +18°C° 0 mm 2 m/S 663 mmHg 64%
    11:00 +18°C° 0 mm 3 m/S 663 mmHg 63%
    12:00 +19°C° 0 mm 3 m/S 663 mmHg 62%
    13:00 +19°C° 0.1 mm 3 m/S 663 mmHg 62%
    14:00 +19°C° 0.1 mm 3 m/S 663 mmHg 62%
    15:00 +19°C° 0.1 mm 3 m/S 662 mmHg 62%
    16:00 +19°C° 0.1 mm 3 m/S 662 mmHg 64%
    17:00 +18°C° 0.1 mm 2 m/S 662 mmHg 67%
    18:00 +17°C° 0.1 mm 2 m/S 662 mmHg 70%
    19:00 +16°C° 0.5 mm 2 m/S 662 mmHg 74%
    20:00 +15°C° 0.5 mm 1 m/S 662 mmHg 77%
    21:00 +14°C° 0.5 mm 1 m/S 663 mmHg 81%
    22:00 +14°C° 0.4 mm 1 m/S 662 mmHg 82%
    23:00 +13°C° 0.4 mm 1 m/S 662 mmHg 83%

    29 Mai, Mittwoch

    Zeit Temperatur Niederschläge Wind Luftdruck Luftfeuchtigkeit
    00:00 +12°C° 0.4 mm 1 m/S 662 mmHg 84%
    01:00 +12°C° 0.1 mm 1 m/S 662 mmHg 83%
    02:00 +12°C° 0.1 mm 2 m/S 662 mmHg 83%
    03:00 +10°C° 0.1 mm 2 m/S 662 mmHg 83%
    04:00 +12°C° 0 mm 2 m/S 662 mmHg 80%
    05:00 +13°C° 0 mm 2 m/S 662 mmHg 77%
    06:00 +14°C° 0 mm 1 m/S 663 mmHg 74%
    07:00 +15°C° 0 mm 2 m/S 663 mmHg 69%
    08:00 +16°C° 0 mm 2 m/S 663 mmHg 64%
    09:00 +18°C° 0 mm 2 m/S 664 mmHg 59%
    10:00 +18°C° 0.1 mm 2 m/S 663 mmHg 58%
    11:00 +19°C° 0.1 mm 2 m/S 663 mmHg 56%
    12:00 +20°C° 0.1 mm 3 m/S 663 mmHg 54%
    13:00 +20°C° 0.2 mm 3 m/S 663 mmHg 55%
    14:00 +20°C° 0.2 mm 3 m/S 663 mmHg 55%
    15:00 +20°C° 0.2 mm 3 m/S 662 mmHg 55%
    16:00 +20°C° 0.4 mm 3 m/S 662 mmHg 59%
    17:00 +19°C° 0.4 mm 2 m/S 662 mmHg 63%
    18:00 +19°C° 0.4 mm 2 m/S 662 mmHg 66%
    19:00 +17°C° 0.3 mm 2 m/S 662 mmHg 71%
    20:00 +16°C° 0.3 mm 1 m/S 662 mmHg 76%
    21:00 +15°C° 0.3 mm 1 m/S 662 mmHg 80%
    22:00 +14°C° 0 mm 1 m/S 662 mmHg 81%
    23:00 +14°C° 0 mm 1 m/S 662 mmHg 82%

    30 Mai, Donnerstag

    Zeit Temperatur Niederschläge Wind Luftdruck Luftfeuchtigkeit
    00:00 +13°C° 0 mm 2 m/S 662 mmHg 83%
    01:00 +13°C° 0 mm 2 m/S 661 mmHg 82%
    02:00 +13°C° 0 mm 2 m/S 661 mmHg 81%
    03:00 +12°C° 0 mm 2 m/S 661 mmHg 80%
    04:00 +13°C° 0 mm 2 m/S 661 mmHg 78%
    05:00 +14°C° 0 mm 1 m/S 662 mmHg 75%
    06:00 +15°C° 0 mm 1 m/S 662 mmHg 73%
    07:00 +16°C° 0 mm 2 m/S 662 mmHg 69%
    08:00 +18°C° 0 mm 2 m/S 662 mmHg 65%
    09:00 +19°C° 0 mm 2 m/S 663 mmHg 60%
    10:00 +20°C° 0.1 mm 2 m/S 663 mmHg 58%
    11:00 +20°C° 0.1 mm 3 m/S 662 mmHg 56%
    12:00 +21°C° 0.1 mm 3 m/S 662 mmHg 54%
    13:00 +21°C° 0.3 mm 3 m/S 662 mmHg 52%
    14:00 +22°C° 0.3 mm 3 m/S 662 mmHg 51%
    15:00 +22°C° 0.3 mm 3 m/S 661 mmHg 50%
    16:00 +21°C° 0.4 mm 2 m/S 661 mmHg 53%
    17:00 +21°C° 0.4 mm 2 m/S 661 mmHg 56%
    18:00 +20°C° 0.4 mm 2 m/S 661 mmHg 60%
    19:00 +18°C° 0.5 mm 2 m/S 661 mmHg 64%
    20:00 +16°C° 0.5 mm 2 m/S 661 mmHg 69%
    21:00 +15°C° 0.5 mm 1 m/S 661 mmHg 74%
    22:00 +14°C° 0.1 mm 2 m/S 661 mmHg 75%
    23:00 +14°C° 0.1 mm 2 m/S 661 mmHg 75%

    31 Mai, Freitag

    Zeit Temperatur Niederschläge Wind Luftdruck Luftfeuchtigkeit
    00:00 +13°C° 0.1 mm 2 m/S 660 mmHg 76%
    01:00 +13°C° 0 mm 2 m/S 660 mmHg 76%
    02:00 +13°C° 0 mm 2 m/S 660 mmHg 76%
    03:00 +12°C° 0 mm 2 m/S 660 mmHg 75%
    04:00 +13°C° 0 mm 2 m/S 660 mmHg 73%
    05:00 +14°C° 0 mm 2 m/S 661 mmHg 71%
    06:00 +15°C° 0 mm 1 m/S 661 mmHg 68%
    07:00 +16°C° 0 mm 2 m/S 661 mmHg 62%
    08:00 +18°C° 0 mm 2 m/S 661 mmHg 56%
    09:00 +19°C° 0 mm 2 m/S 662 mmHg 50%
    10:00 +20°C° 0 mm 2 m/S 662 mmHg 49%
    11:00 +21°C° 0 mm 3 m/S 661 mmHg 47%
    12:00 +22°C° 0 mm 3 m/S 661 mmHg 46%
    13:00 +24°C° 0.1 mm 3 m/S 661 mmHg 46%
    14:00 +24°C° 0.1 mm 3 m/S 660 mmHg 46%
    15:00 +24°C° 0.1 mm 3 m/S 660 mmHg 46%
    16:00 +22°C° 0.2 mm 3 m/S 660 mmHg 50%
    17:00 +23°C° 0.2 mm 2 m/S 660 mmHg 53%
    18:00 +21°C° 0.2 mm 2 m/S 660 mmHg 57%
    19:00 +19°C° 0 mm 2 m/S 659 mmHg 61%
    20:00 +19°C° 0 mm 1 m/S 659 mmHg 65%
    21:00 +16°C° 0 mm 1 m/S 659 mmHg 70%
    22:00 +16°C° 0 mm 1 m/S 659 mmHg 70%
    23:00 +15°C° 0 mm 2 m/S 659 mmHg 71%
    Mehr zeigen